User: anonymous   Login
Location: Unspecified
(0.0000°N, 0.0000°E)
Time: 06:50:58
(UTC+00:00)
Language:

USA 269 - Orbit

View from above orbital plane
View from above orbital plane
View from above satellite
View from above satellite

Ground track
Ground track

The orbit data is extracted from the following two-line orbital elements,

1 41724U 16047A   20040.57292921 0.00000000  00000-0  00000-0 0    02
2 41724   3.2801 335.2553 0003453 160.9479 199.0798  1.00270000    04
Epoch (UTC): 09 February 2020 13:45:01
Eccentricity: 0.0003453
inclination: 3.2801°
perigee height: 35772 km
apogee height: 35801 km
right ascension of ascending node: 335.2553°
argument of perigee: 160.9479°
revolutions per day: 1.00270000
mean anomaly at epoch: 199.0798°
orbit number at epoch: 0

The dashed part of the orbit path shows where the satellite is in the earth's shadow,  

DLR